Flag for Germany Weather past 2 weeks in Schwerin, Mecklenburg-Western Pomerania, Germany

Now
33 °F

Light snow. Low clouds.


Feels Like: 33 °F
Forecast: 33 / 42 °F
Wind: 2 mph from South

Location: Schwerin

Current Time: Mar 3, 2015 at 7:54:09 PM

Latest Report: Mar 3, 2015 at 7:00 PM


Visibility: 2 mi

Pressure: 29.86 "Hg

Humidity: 99%

Dew point: 32 °F

Location of SchwerinLocation

Historic Weather in Schwerin — Graph

°F

Schwerin temperature yesterday

Maximum temperature yesterday: 42 °F (at 5:00 PM)
Minimum temperature yesterday: 35 °F (at 1:00 AM)
Average temperature yesterday: 38 °F

Past Weeks' High & Low Weather Summary

 TemperatureHumidityPressure
High49 °F (Feb 26, 3:00 PM)100% (Feb 18, 12:00 AM)30.69 "Hg (Feb 18, 12:00 AM)
Low27 °F (Feb 17, 8:00 AM)45% (Feb 26, 5:00 PM)29.23 "Hg (Feb 21, 1:00 PM)
Average37 °F83%29.88 "Hg
* Reported Feb 16 7:00 PM — Mar 3 7:00 PM, Schwerin, Weather by CustomWeather, © 2015

Note: Actual official high and low records may vary slightly from our data, if they occured in-between our weather recording intervals... More about our weather records

Advertising

Schwerin weather history for previous 24 hours

 ConditionsComfort  
Time TempWeatherWind HumidityBarometerVisibility
7:00 PM
Tue, Mar 3
33 °FLight snow. Low clouds.2 mph99%29.86 "Hg2 mi
6:00 PM35 °FLight rain. Low clouds.3 mph96%29.88 "Hg3 mi
5:00 PM42 °FOvercast.5 mph67%29.88 "Hg22 mi
3:00 PM43 °FPartly sunny.7 mph61%29.92 "Hg18 mi
2:00 PM43 °FOvercast.9 mph63%29.93 "Hg19 mi
1:00 PM41 °FOvercast.12 mph68%29.93 "Hg16 mi
12:00 PM40 °FOvercast.9 mph75%29.93 "Hg14 mi
11:00 AM39 °FOvercast.10 mph78%29.93 "Hg14 mi
10:00 AM38 °FScattered clouds.9 mph79%29.91 "Hg11 mi
9:00 AM36 °FPassing clouds.9 mph84%29.90 "Hg16 mi
8:00 AM34 °FSunny.9 mph90%29.87 "Hg12 mi
7:00 AM35 °FPassing clouds.8 mph91%29.85 "Hg12 mi
6:00 AM35 °FOvercast.9 mph91%29.83 "Hg14 mi
5:00 AM36 °FLight rain. Overcast.10 mph87%29.80 "Hg9 mi
3:00 AM34 °FSnow. Low clouds.8 mph95%29.73 "Hg2 mi
2:00 AM35 °FDrizzle. Overcast.8 mph89%29.72 "Hg9 mi
1:00 AM35 °FOvercast.8 mph85%29.71 "Hg11 mi
12:00 AM35 °FOvercast.9 mph87%29.69 "Hg11 mi
11:00 PM
Mon, Mar 2
37 °FPassing clouds.8 mph80%29.67 "Hg19 mi
10:00 PM37 °FOvercast.7 mph78%29.65 "Hg19 mi
9:00 PM36 °FPassing clouds.5 mph77%29.63 "Hg16 mi
8:00 PM38 °FPassing clouds.5 mph73%29.61 "Hg19 mi
7:00 PM40 °FPassing clouds.7 mph67%29.59 "Hg22 mi
Weather by CustomWeather, © 2015

See weather overviewHow to use our weather pages